Regional Weather Roundup
Issued by NWS

Home | Current Version | Previous Version | Graphics & Text | Print | Product List | Glossary On
Versions: 1 2 3 4 5 6 7 8 9 10 11 12 13 14 15 16 17 18 19 20 21 22 23 24 25 26 27 28 29 30 31 32 33 34 35 36 37 38 39 40 41 42 43 44 45 46 47 48 49 50
000
ASUS45 KBOU 210107
RWRCO

WEATHER ROUNDUP FOR COLORADO
NATIONAL WEATHER SERVICE DENVER/BOULDER CO
700 PM MDT SAT SEP 20 2014

NOTE: "FAIR" INDICATES FEW OR NO CLOUDS BELOW 12000 FEET WITH NO
SIGNIFICANT WEATHER AND/OR OBSTRUCTIONS TO VISIBILITY.

COZ001>005-013-030-031-210200-
...NORTHWEST COLORADO...

CITY           SKY/WX    TMP DP  RH WIND       PRES   REMARKS
CRAIG          CLEAR     73  32  22 N3        30.22S
HAYDEN         CLEAR     73  28  19 NW6       30.24S
MEEKER           N/A     73  29  19 N10       30.21
MOUNT WERNER   NOT AVBL
STEAMBOAT SPGS CLEAR     72  33  23 CALM      30.26S
WALDEN         CLEAR     63  32  31 NE10      30.37R
$$

COZ006>008-011-210200-
...WEST CENTRAL VALLEYS...

CITY           SKY/WX    TMP DP  RH WIND       PRES   REMARKS
GRAND JUNCTION PTCLDY    85  33  15 NE12      30.03S
MONTROSE       MOCLDY    77  44  30 SE18G24   30.16S
EAGLE          NOT AVBL
RIFLE          MOCLDY    81  37  20 NW8       30.11R
DELTA          MOCLDY    82  46  29 S7        30.09R
NUCLA          MOCLDY    77  43  29 E9        30.17S
$$

COZ017>023-064>068-210200-
...SOUTHWEST COLORADO...

CITY           SKY/WX    TMP DP  RH WIND       PRES   REMARKS
DURANGO        LGT RAIN  76  41  28 SE22G33   30.18R
CORTEZ         CLEAR     82  41  23 W5        30.11R
PAGOSA SPRINGS CLOUDY    74  33  22 CALM      30.28R
TELLURIDE      NOT AVBL
WOLF CREEK PAS CLOUDY    46  36  66 NE21      30.63R
$$

COZ009-010-012-014-032>034-037-058>063-210200-
...CENTRAL COLORADO...

CITY           SKY/WX    TMP DP  RH WIND       PRES   REMARKS
ASPEN          MOCLDY    71  35  26 SE20G31   30.33R THUNDER
BUENA VISTA    LGT RAIN  66  39  37 NW8G16    30.40R
COPPER MTN     CLOUDY    54  34  47 S18       30.68R
BERTHOUD PASS  MOCLDY    39  37  93 SE24G30   30.73R
COTTONWOOD PAS LGT RAIN  59  39  47 S6G20     30.54R
GUNNISON       CLOUDY    68  37  32 SW9G21    30.37R
KREMMLING      CLEAR     72   3   7 NW7       30.29S
LEADVILLE      CLOUDY    57  36  45 VRB5      30.51R
SALIDA         CLOUDY    69  48  46 NE12G18   30.40R
SUNLIGHT       PTCLDY    61  34  36 CALM      30.57R
WILKERSON PASS NOT AVBL
$$

COZ069>075-210200-
...SAN LUIS VALLEY/SANGRE DE CRISTO MOUNTAINS...

CITY           SKY/WX    TMP DP  RH WIND       PRES   REMARKS
ALAMOSA        PTCLDY    68  40  35 SE6       30.30R
LA VETA PASS   CLEAR     55  37  50 NE16G24   30.54R
SAGUACHE       NOT AVBL
$$

COZ035-036-038>040-210200-
...NORTHERN COLORADO FRONT RANGE...

CITY           SKY/WX    TMP DP  RH WIND       PRES   REMARKS
DENVER INTL AP MOCLDY    70  47  43 E9        30.26R
DMNS CITY PARK   N/A     72  45  38 E2        30.25R
AURORA         MOCLDY    69  48  47 E6        30.28R
FRONT RANGE AP NOT AVBL
ERIE MUNI ARPT PTCLDY    74  44  33 NW3       30.24R
BOULDER MUN AP PTCLDY    72  45  37 CALM      30.25R
CENTENNIAL     MOCLDY    72  46  39 NE7       30.28R
BROOMFIELD     PTCLDY    73  45  35 CALM      30.28R
FORT COLLINS   CLEAR     73  46  38 SE7       30.23R
LONGMONT       PTCLDY    75  50  42 CALM      30.25R
$$

COZ041-046-047-076>085-087-088-210200-
...PIKES PEAK/PALMER DIVIDE AND SOUTHERN FOOTHILLS...

CITY           SKY/WX    TMP DP  RH WIND       PRES   REMARKS
COLO. SPRINGS  MOCLDY    74  45  35 E10       30.29R
A. F. ACADEMY  CLOUDY    72  46  39 NE5       30.32R
ELLICOTT       NOT AVBL
FALCON         PTCLDY    67  45  44 NE7       30.36R
FORT CARSON    CLOUDY    75  47  37 E8        30.26R
LIMON          CLEAR     69  46  43 E9        30.26R
MONUMENT HILL  MOCLDY    64  45  48 NE6       30.36R
TRINIDAD       CLEAR     76  44  32 E9        30.21S
$$

COZ042>045-048>051-090-091-210200-
...NORTHEAST COLORADO...

CITY           SKY/WX    TMP DP  RH WIND       PRES   REMARKS
GREELEY ARPT   CLEAR     73  48  40 S7        30.23R
AKRON          CLEAR     71  48  43 NE8       30.21R
BURLINGTON     CLEAR     71  48  43 NE7       30.18R
WRAY           CLEAR     73  49  42 N6        30.15S
STERLING       CLEAR     77  52  41 CALM      30.17R
HOLYOKE        CLEAR     73  54  49 CALM      30.16R
FORT MORGAN    CLEAR     69  51  53 E5        30.22R
$$

COZ086-089-092>099-210200-
...SOUTHEAST COLORADO...

CITY           SKY/WX    TMP DP  RH WIND       PRES   REMARKS
PUEBLO         CLEAR     81  47  30 SE12      30.16R
LA JUNTA       CLEAR     79  50  36 E9        30.13R
LAMAR          CLEAR     77  54  44 NE8       30.10R
SPRINGFIELD      N/A     77  55  46 NE13      30.13R
$$



USA.gov is the U.S. government's official web portal to all federal, state and local government web resources and services.